Location: Miss�
(46.9484°N, 0.1922°W)
Time: 06:16:34
(UTC+00:00)

Cosmos 2333 Rocket - Pass Details

Date: 02 March 2021
Orbit: 837 x 864 km, 70.8° (Epoch: 11 April)

Event Time Altitude Azimuth Distance (km) Brightness Sun altitude
Rises 18:59:23 0° 165° (SSE) 3,386 5.1 -13.0°
Reaches altitude 10° 19:02:17 10° 151° (SSE) 2,460 4.3 -13.5°
Maximum altitude 19:06:34 23° 101° (ESE) 1,751 3.2 -14.2°
Enters shadow 19:08:26 19° 75° (ENE) 1,914 3.5 -14.5°
